Location: �clusier
(49.9361°N, 2.7869°E)
Time: 21:26:38
(UTC+00:00)

Cosmos 2016 Rocket - Pass Details

Date: 24 October 2021
Orbit: 946 x 1001 km, 83.0° (Epoch: 30 November)

Event Time Altitude Azimuth Distance (km) Brightness Sun altitude
Rises 05:37:55 0° 355° (N) 3,632 6.9 -8.3°
Reaches altitude 10° 05:40:43 10° 5° (N) 2,681 6.3 -7.8°
Maximum altitude 05:46:10 33° 68° (ENE) 1,547 5.8 -7.0°
Drops below altitude 10° 05:51:36 10° 132° (SE) 2,673 7.4 -6.1°
Sets 05:54:22 0° 142° (SE) 3,619 7.9 -5.7°
